Regional Weather Roundup
Issued by NWS

Home | Current Version | Previous Version | Text Only | Print | Product List | Glossary Off
Versions: 1 2 3 4 5 6 7 8 9 10 11 12 13 14 15 16 17 18 19 20 21 22 23 24 25 26 27 28 29 30 31 32 33 34 35 36 37 38 39 40 41 42 43 44 45 46 47 48 49 50

000
ASUS43 KFSD 291902
RWRSD

WEATHER ROUNDUP FOR SOUTH DAKOTA
NATIONAL WEATHER SERVICE SIOUX FALLS SD
200 PM CDT MON MAY 29 2017

NOTE: "FAIR" INDICATES FEW OR NO CLOUDS BELOW 12,000 FEET WITH NO
SIGNIFICANT WEATHER AND/OR OBSTRUCTIONS TO VISIBILITY.


SDZ001>005-009-010-012>017-292000-
NORTHWEST AND NORTH CENTRAL SOUTH DAKOTA

CITY           SKY/WX    TMP DP  RH WIND       PRES   REMARKS
BUFFALO          N/A     63  35  35 NW26G32   30.08S
FAITH            N/A     66  35  31 NW26      30.09F
MOBRIDGE       PTSUNNY   66  37  34 NW22G33   30.02S
$$

SDZ012>016-024>037-041>051-057-063-072>074-292000-
SOUTHWEST AND SOUTH CENTRAL SOUTH DAKOTA

CITY           SKY/WX    TMP DP  RH WIND       PRES   REMARKS
RAPID CTY ARPT SUNNY     68  30  24 NW18G33   30.14F
PIERRE         MOSUNNY   68  38  33 NW18G33   30.05F
CUSTER         SUNNY     60  15  17 N13G20    30.19S
ELLSWORTH AFB  SUNNY     66  29  25 N18G33    30.13F
PHILIP         PTSUNNY   66  35  31 NW17G26   30.11S
PINE RIDGE     SUNNY     65  40  39 VRB3      30.16F
SPEARFISH      FAIR      63  34  34 NW18G26   30.18F
WINNER         CLOUDY    66  41  40 NW22G28   30.09F
$$

SDZ004>011-016>023-039-040-292000-
NORTHEAST SOUTH DAKOTA

CITY           SKY/WX    TMP DP  RH WIND       PRES   REMARKS
ABERDEEN       PTSUNNY   64  43  46 N15G23    29.99F
WATERTOWN      CLOUDY    55  45  68 NW21G28   29.97R
BROOKINGS      CLOUDY    56  48  74 NW24      29.97F
SISSETON         N/A     59  47  64 NW22      29.94R
$$

SDZ017-020-022-023-036>040-048>070-292000-
SOUTHEAST SOUTH DAKOTA

CITY           SKY/WX    TMP DP  RH WIND       PRES   REMARKS
SIOUX FALLS    PTSUNNY   64  47  53 NW18G31   29.98F
HURON          CLOUDY    60  44  55 N16       30.02S
CHAMBERLAIN    CLOUDY    64  41  42 NW16G22   30.07S
MITCHELL       PTSUNNY   66  42  41 NW22G30   30.04S
YANKTON        MOSUNNY   67  44  43 NW26G32   30.02S
$$

ABBREVIATIONS USED IN REMARKS
   TC - TEMPERATURE IN CELSIUS
  WCI - WIND CHILL INDEX
   HX - HEAT INDEX
  VSB - VISIBILITY





USA.gov is the U.S. government's official web portal to all federal, state and local government web resources and services.